ATLAS 5 CENTAUR DEB, 44654

Orbit data source: Space-Track

ATLAS 5 CENTAUR DEB, 44654 is space debris in HEO originally from a launch on Wed, 17 Oct 2018 UTC launched from the Air Force Eastern Test Range (AFETR). Debris objects in space refer to the collection of defunct objects orbiting the Earth. Examples of debris include non-operational satellites, rocket bodies, and fragments generated from explosions, collisions, or faulty payload assembly.

Loading next visibility...
Identifier
44654, 2018-079Q
Orbit
HEO
Country
Flag of USUS
Related business
Flag of USUnited Launch Alliance/Lockheed Martin (US)
Manufacturer
ULA Decatur
Mission
Spacecraft
Bus & Motor
Unknown
Mass
Unknown
Launch date (UTC)
2018-10-17 (7 years ago)
Launch vehicle
Unknown
Launch site
Air Force Eastern Test Range (AFETR)
Object type
Payload
Rocket body
Debris
Shape & HBR
Unknown shape, 1.1 m
Radar Cross Section
RCS unknown

Expand to show TLE details & history
Last TLE update: 2 days ago

TLE from 2 days ago
0 ATLAS 5 CENTAUR DEB
1 44654U 18079Q   25295.28887834 -.00000100  00000-0  00000-0 0  9991
2 44654  13.3300  54.4648 4677013 272.4596  36.9102  1.80726259 40992
Epoch: 2025-10-22T06:55Z
TLE epoch observation values (Epoch: 2025-10-22T06:55:59.088Z)
Latitude
-0.00001°
Longitude
-80.56819°
Altitude
15,413.472 km
Speed
4.752 km/s
True Right ascension
03h 37m 34s
True Declination
0° 00' 00"
Sunlit
Object was in daylight at epoch
Visualization orbit readout
Latitude
Unknown
Longitude
Unknown
Altitude
Unknown
Speed
Unknown
Apparent Right ascension
Unknown
Apparent Declination
Unknown
Sunlit
N/A
Visualization observer readout
Local Sidereal Time
08:33:55
Azimuth
Unknown
Elevation
Unknown
Doppler factor
Unknown
Orbital elements
Apogee altitude
35,410.39 km
Perigee altitude
8,777.521 km
Semi-major axis
28,472.092 km
Eccentricity
0.4677
Inclination
13.33°
RAAN
54.4648°
Arg. of periapsis
272.4596°
True anomaly
87.76031°
Mean anomaly
36.9102°
Eccentric anomaly
60.15306°
Mean motion
0.45177 °/min
Orbital period
796.87 mins
BSTAR
0
Loading maneuver chart data...
Computing Atmospheric mass density...

Documentation

Showing up to 5 results
|